Weather Roundup
Issued by NWS Chicago, IL

Home | Current Version | Previous Version | Text Only | Print | Product List | Glossary Off
Versions: 1 2 3 4 5 6 7 8 9 10 11 12 13 14 15 16 17 18 19 20 21 22 23 24 25 26 27 28 29 30 31 32 33 34 35 36 37 38 39 40 41 42 43 44 45 46 47 48 49 50

000
NZUS59 KLOT 280512
HRRLOT

CHICAGO AREA WEATHER ROUNDUP
NATIONAL WEATHER SERVICE CHICAGO/ROMEOVILLE IL
1100 PM CST MON FEB 27 2017

NOTE: "FAIR" INDICATES FEW OR NO CLOUDS BELOW 12,000 FEET WITH NO
SIGNIFICANT WEATHER AND/OR OBSTRUCTIONS TO VISIBILITY.

* THESE STATIONS ARE NOT UNDER NWS QUALITY CONTROL. THEY ALSO MAY NOT
  REPORT WEATHER SUCH AS PRECIPITATION OR FOG.

ILZ005-006-012>014-019>023-280600-
NORTHEAST ILLINOIS

CITY           SKY/WX    TMP DP  RH WIND       PRES   REMARKS
OHARE          CLOUDY    47  38  71 SE10      30.01F
MIDWAY         CLOUDY    48  38  68 SE12      30.03F
AURORA         CLOUDY    46  38  73 SE10      30.01F
LANSING*       CLOUDY    46  41  84 S9        30.06S
JOLIET*        CLOUDY    47  41  79 S10G16    30.02F
WAUKEGAN       CLOUDY    42  35  76 S10       30.02F
DUPAGE AIRPORT CLOUDY    47  38  71 S12G21    30.01S
WHEELING       CLOUDY    46  37  71 S9        30.03F
KANKAKEE*      CLOUDY    45  40  82 E7        30.05F
MORRIS*        CLOUDY    47  41  77 S15G22    30.00F
LEWIS AIRPORT* CLOUDY    45  41  87 S16       30.02F
NORTHERLY ISL    N/A     45  38  76 SE10        N/A
$$

WIZ051-052-058>065-066-070>072-280600-
SOUTHEAST WISCONSIN

CITY           SKY/WX    TMP DP  RH WIND       PRES   REMARKS
MILWAUKEE      PTCLDY    43  34  70 S8        30.02F
KENOSHA*       CLOUDY    43  35  73 SE13      30.02F
RACINE*        MOCLDY    41  34  76 S9        30.03F
WAUKESHA       PTCLDY    37  32  81 SE5       30.02F
WEST BEND      CLOUDY    32  32 100 CALM      30.02F
$$

INZ001>003-010>013-019-020-280600-
NORTHWEST INDIANA

CITY           SKY/WX    TMP DP  RH WIND       PRES   REMARKS
GARY*          CLOUDY    48  38  69 SE12      30.06S
MICHIGAN CITY* NOT AVBL
RENSSELAER*    NOT AVBL
VALPARAISO     CLOUDY    46  40  79 S12       30.08S
$$

LMZ740>746-280600-
SOUTHERN LAKE MICHIGAN

STATION/POSITION TIME  SKY/WX   TEMP WIND        PRES    VSBY
                                AIR  DIR/SP/G
                 (UTC)          (F)  (DEG/KT/KT) (MB)    (MI)
HARRISON CRIB    0440            42  160/ 17/ 18   N/A
BURNHAM HARBOR   0500            45  160/ 10/ 12   N/A
CALUMET HARBOR   0448            46  150/  7/ 11 1016.8F
BURNS HARBOR     0440            47  170/ 11/ 17 1018.6S
MICHIGAN CITY    0440            45  130/ 12/ 14   N/A
$$

ABBREVIATIONS USED IN REMARKS
   TC - TEMPERATURE IN CELSIUS
  WCI - WIND CHILL INDEX
   HX - HEAT INDEX
  VSB - VISIBILITY
$$




USA.gov is the U.S. government's official web portal to all federal, state and local government web resources and services.